Voltar ao catálogo

COSMOS 1818 COOLANT

AtivoLEO
NORAD 50787·DEBRIS·🇷🇺 Russia

Lançado Feb 1, 1987 de Baikonur Cosmodrome

Loading…

Próximas Passagens (próximas 24 horas)

TLE

EnvelhecendoSource: Space-Track

Época: Sep 9, 2026, 09:27 UTC

1 50787U 87011BC  26252.39379312  .00000482  00000-0  18524-3 0  9995
2 50787  65.0097 299.6287 0021735 280.1373  93.2304 14.39806185557970

Acompanhe COSMOS 1818 COOLANT em tempo real com AllMySat

Download on the App Store